Wind_Speed
11 11 11 11 11 11 11 11 11 11 11 10 10 10 10 10 11 11 11 11 12 13 13 13 13 15 15 15 16 17 17 18 18 19 19 20 21 23 22 22 23 23 23
11 11 12 12 12 12 12 12 11 11 10 10 10 9 9 9 10 11 11 11 11 12 13 13 14 14 15 15 16 17 17 18 18 19 20 20 22 23 22 22 22 23 23
11 11 11 11 10 10 11 10 10 10 11 11 10 10 10 10 10 10 11 11 12 12 12 13 13 14 14 15 16 17 17 18 18 19 20 20 21 21 22 22 22 23 23
13 12 12 11 11 10 10 10 10 9 9 9 10 10 11 10 10 11 11 12 13 14 14 14 14 14 14 15 16 16 16 17 18 19 19 20 20 21 21 22 23 23 24
14 14 13 13 13 11 11 10 10 9 9 9 9 9 10 10 11 12 12 12 13 14 14 14 14 14 15 15 16 17 17 18 18 19 20 21 21 22 23 23 24 24 25
15 15 14 14 14 13 12 12 11 11 11 11 11 11 11 11 12 12 12 13 13 13 14 15 15 16 16 16 17 18 18 19 19 20 21 21 22 23 23 24 25 25 26
17 17 16 15 15 14 14 13 13 13 13 13 13 13 13 13 13 13 14 14 14 14 15 16 16 17 17 18 19 19 19 20 21 22 23 23 23 24 24 25 25 26 26
18 18 18 17 17 16 16 16 16 15 15 15 15 15 15 15 15 15 15 15 16 16 16 17 18 18 19 19 19 20 20 22 23 24 24 24 24 24 25 25 26 26 26
18 18 18 18 18 18 18 17 17 17 17 17 17 17 17 17 17 17 18 19 18 18 18 19 19 20 20 20 20 21 21 22 23 24 24 24 24 25 26 26 25 25 25
19 19 19 19 19 18 18 18 19 20 20 20 19 18 18 19 19 19 20 20 20 20 20 21 20 20 21 21 21 21 21 22 22 23 24 24 24 24 24 24 25 25 26
20 20 20 19 19 18 18 18 19 19 19 19 19 20 20 20 20 21 20 21 21 21 21 21 21 22 22 21 21 21 21 22 22 23 24 24 24 23 23 24 25 25 26
21 22 21 21 21 20 20 20 19 19 19 19 19 20 20 21 21 21 21 21 21 21 20 21 21 22 22 22 21 21 22 22 23 23 22 22 22 23 23 23 24 25 26
23 23 22 22 22 22 22 21 20 20 20 20 20 20 20 21 21 22 22 21 21 21 21 21 21 21 22 22 23 23 23 23 23 22 22 22 22 23 23 24 24 24 24
23 24 24 24 23 23 22 22 21 21 21 21 21 21 21 21 22 22 22 22 21 22 22 22 22 22 23 23 23 24 24 24 23 22 22 23 23 23 23 24 24 24 23
25 25 25 24 23 22 23 23 23 23 22 23 22 21 22 22 22 22 23 23 22 22 22 22 22 23 23 23 24 24 24 24 24 23 24 24 24 24 24 24 24 24 24
24 24 24 24 24 24 24 24 25 24 24 23 23 23 22 23 23 23 23 23 22 22 23 23 24 23 23 23 24 24 24 24 24 24 25 25 24 25 25 24 24 24 24
24 23 23 23 22 22 23 24 25 24 24 23 23 23 23 24 23 23 23 23 23 24 24 24 24 25 24 24 24 24 24 24 24 24 24 24 25 25 25 24 24 23 24
23 22 22 22 22 22 22 22 22 22 22 23 23 23 24 24 23 23 23 23 23 24 24 24 25 25 24 24 24 24 24 24 24 24 24 24 24 25 25 24 24 25 25
22 22 21 21 21 21 21 21 21 21 22 22 22 23 22 22 22 21 21 22 22 23 23 23 24 24 24 23 22 23 23 23 23 24 24 24 24 24 24 24 25 25 26
20 20 20 20 20 20 20 20 20 21 21 21 21 21 21 20 20 20 20 20 20 21 22 22 22 22 22 22 22 23 23 23 23 24 24 24 24 24 24 25 25 26 27
20 20 20 21 21 21 21 21 21 20 20 21 21 20 20 19 19 20 20 20 20 20 21 21 21 21 21 22 22 23 23 24 24 24 25 25 25 25 26 26 27 27 28
20 21 21 21 21 22 22 22 22 22 21 21 21 21 20 19 19 19 19 20 20 20 20 20 20 21 21 21 22 22 23 24 24 25 25 26 26 26 27 27 28 28 27
20 20 21 21 21 22 22 22 22 22 22 22 21 21 21 21 21 21 21 21 21 20 20 20 20 20 21 22 23 23 23 24 25 25 26 26 26 27 27 28 28 27 26
20 20 20 21 21 21 21 21 21 21 21 22 22 22 22 22 22 22 22 23 22 21 21 21 21 21 22 23 23 24 24 24 25 25 25 26 26 27 27 27 27 26 26
20 20 20 20 21 21 21 21 21 20 21 21 22 22 21 22 22 23 23 23 23 23 23 23 23 23 24 24 24 24 24 24 24 25 25 25 26 26 26 26 25 25 25
20 20 20 20 20 20 20 19 19 20 20 21 21 22 22 22 22 23 23 23 23 23 24 24 23 23 24 24 23 23 23 24 24 24 24 24 24 24 25 25 25 25 24
Wind_Direction
256 256 257 257 260 262 264 267 269 268 263 258 254 250 252 256 258 259 260 260 262 264 261 263 265 266 263 262 261 262 262 263 268 271 272 272 274 277 278 278 278 278 278
255 255 256 258 261 261 259 260 260 261 261 257 258 253 255 259 260 259 259 260 261 264 263 265 267 268 265 266 267 267 267 268 271 273 274 275 275 277 279 279 278 279 279
254 254 254 256 261 261 258 256 256 258 259 257 256 256 259 260 261 263 261 260 260 262 266 268 270 272 274 273 270 270 271 272 275 275 277 279 280 280 281 279 278 280 280
254 253 255 259 264 265 262 260 258 257 257 257 257 257 259 262 264 266 266 262 260 263 266 269 272 276 278 279 278 276 275 274 276 276 279 280 280 281 282 281 279 280 280
255 255 258 260 263 266 264 264 263 265 265 267 266 264 265 269 274 273 272 269 268 268 268 270 272 275 278 280 280 277 275 276 278 278 279 280 281 280 281 282 282 281 281
253 254 256 257 259 264 261 260 261 263 265 269 272 271 271 275 277 278 275 274 273 273 275 274 274 275 277 278 279 278 276 278 280 279 281 283 283 282 282 283 283 283 283
254 252 253 255 257 262 262 257 257 261 264 267 270 271 271 273 275 277 277 274 275 279 282 280 279 279 279 280 279 280 281 281 281 283 283 283 284 284 283 283 283 283 283
254 253 252 254 255 256 259 258 257 261 266 268 270 270 270 271 271 274 278 277 278 279 281 281 281 281 282 281 280 284 285 284 283 283 284 283 284 285 285 284 284 283 283
254 253 252 252 253 256 259 260 261 262 265 268 269 269 270 271 271 274 276 278 278 279 280 281 282 283 283 284 284 285 285 285 285 284 284 285 285 285 285 284 283 282 283
255 254 253 252 253 256 259 261 262 264 265 266 267 268 269 271 272 274 275 277 279 279 280 281 281 282 284 284 283 284 286 286 286 286 286 286 286 285 284 284 285 284 285
255 255 254 255 256 259 261 264 265 266 268 267 267 267 268 270 271 274 277 278 280 281 281 281 280 280 281 283 285 285 286 287 289 289 289 288 286 286 286 286 285 285 285
254 253 254 255 257 261 264 265 267 270 271 271 271 272 272 273 274 276 279 280 280 282 282 282 282 282 282 284 286 287 287 289 290 290 290 290 289 288 289 289 288 287 286
253 252 253 255 258 260 262 263 266 269 271 271 272 273 274 274 274 276 278 278 278 278 279 281 281 280 281 283 284 286 287 288 289 289 290 290 291 291 291 291 290 290 288
254 253 254 255 258 260 260 261 263 266 268 269 271 271 271 272 271 272 275 277 277 277 279 279 280 281 282 284 285 285 286 286 287 287 289 290 290 292 293 293 291 291 291
255 254 252 254 257 260 261 262 264 267 268 268 270 271 271 271 271 271 273 275 275 276 278 279 280 281 283 285 286 286 285 285 285 286 288 289 289 291 292 292 291 291 291
257 255 253 255 257 260 263 263 264 266 267 267 268 270 272 273 274 273 273 273 274 275 277 279 281 282 283 284 285 285 284 283 284 285 287 289 289 291 292 293 293 292 292
255 253 254 256 258 261 262 264 264 264 266 267 268 270 272 274 274 274 274 272 273 275 278 281 283 283 283 283 283 283 283 283 285 286 287 289 291 292 292 293 294 294 294
252 253 255 256 258 262 264 265 266 266 268 270 271 272 273 274 274 274 274 273 275 277 280 282 283 282 282 282 282 283 283 283 284 286 289 291 293 294 293 292 292 293 293
254 254 257 257 260 263 265 267 269 270 271 273 273 273 272 272 273 275 275 276 277 279 282 283 284 283 282 281 280 281 282 283 285 286 289 291 292 293 293 291 291 292 292
255 255 256 256 259 263 266 268 270 271 272 273 274 273 272 272 273 275 278 279 280 282 284 285 285 284 282 281 281 281 282 283 285 287 288 290 292 292 293 293 292 292 292
255 256 258 258 262 265 266 268 269 270 271 272 272 271 270 271 273 274 277 279 281 284 285 287 287 285 284 283 282 281 282 283 285 286 288 289 291 291 292 293 293 292 292
257 259 260 260 262 265 267 268 268 269 270 271 269 269 269 270 272 274 278 280 280 282 285 286 287 287 284 284 283 282 283 285 287 288 288 289 290 291 292 293 293 292 291
258 260 261 262 265 266 267 267 267 269 268 267 266 267 268 270 272 274 276 279 282 284 285 285 287 288 287 286 286 284 284 286 288 289 289 290 290 292 294 295 295 293 291
259 260 262 264 266 266 266 267 268 269 269 268 267 266 268 270 272 274 276 279 280 282 284 285 285 285 288 288 286 284 285 286 286 287 288 290 291 292 293 295 294 292 292
259 261 263 263 264 264 265 268 270 270 269 269 267 267 269 272 273 275 277 278 279 281 283 286 287 286 288 289 287 285 285 286 287 289 290 291 293 293 293 294 294 294 294
259 261 262 262 261 262 264 267 269 270 271 270 269 268 269 271 273 276 277 278 279 281 284 286 287 287 288 288 288 287 286 288 289 289 290 292 292 292 293 295 295 295 295
Height
5816 5816 5816 5816 5816 5816 5816 5816 5815 5815 5815 5815 5815 5815 5816 5816 5816 5816 5816 5816 5817 5816 5816 5816 5816 5816 5816 5816 5816 5816 5816 5816 5816 5815 5815 5814 5814 5813 5813 5812 5811 5810 5810
5814 5814 5814 5814 5814 5814 5813 5813 5813 5813 5813 5813 5813 5813 5813 5813 5813 5814 5814 5814 5814 5814 5814 5814 5814 5813 5813 5812 5812 5812 5812 5811 5811 5811 5810 5809 5809 5808 5807 5806 5806 5804 5804
5811 5812 5812 5812 5812 5811 5811 5811 5811 5810 5810 5810 5810 5811 5811 5811 5811 5811 5811 5811 5811 5811 5811 5810 5810 5810 5809 5809 5808 5808 5807 5807 5807 5806 5805 5804 5803 5802 5801 5801 5800 5799 5797
5808 5809 5809 5809 5809 5809 5809 5809 5809 5808 5808 5808 5808 5808 5808 5808 5808 5808 5808 5808 5808 5808 5807 5807 5807 5806 5806 5805 5804 5804 5803 5803 5802 5801 5800 5799 5798 5797 5796 5795 5794 5793 5791
5805 5806 5806 5806 5806 5806 5806 5806 5806 5806 5806 5806 5806 5806 5806 5805 5805 5805 5805 5805 5805 5804 5804 5803 5803 5802 5802 5801 5800 5799 5799 5798 5797 5796 5795 5794 5793 5792 5791 5789 5788 5787 5785
5801 5802 5802 5802 5803 5803 5803 5803 5803 5803 5803 5803 5803 5803 5803 5803 5802 5802 5802 5801 5801 5801 5800 5799 5799 5798 5797 5797 5796 5795 5794 5793 5792 5791 5790 5788 5787 5786 5785 5783 5782 5780 5779
5797 5797 5798 5798 5799 5799 5800 5800 5800 5800 5800 5800 5800 5800 5799 5799 5799 5798 5798 5797 5797 5797 5796 5795 5794 5794 5793 5792 5791 5790 5789 5787 5786 5785 5784 5782 5781 5780 5778 5777 5775 5774 5772
5792 5793 5793 5794 5795 5795 5796 5796 5796 5796 5797 5797 5796 5796 5796 5795 5795 5795 5794 5793 5793 5792 5792 5791 5790 5789 5788 5787 5786 5785 5783 5782 5780 5779 5778 5776 5775 5773 5772 5770 5768 5767 5765
5787 5788 5789 5789 5790 5791 5791 5791 5792 5792 5792 5792 5792 5791 5791 5791 5791 5790 5790 5789 5788 5787 5787 5786 5785 5784 5783 5782 5780 5779 5778 5776 5774 5773 5771 5770 5768 5767 5765 5763 5762 5760 5759
5783 5783 5784 5785 5785 5786 5786 5787 5787 5787 5787 5787 5786 5786 5786 5786 5785 5785 5784 5784 5783 5782 5781 5780 5779 5778 5777 5775 5774 5773 5771 5770 5768 5767 5765 5763 5762 5760 5758 5756 5755 5753 5752
5777 5778 5779 5780 5780 5781 5781 5781 5781 5781 5781 5781 5781 5781 5780 5780 5780 5779 5778 5778 5777 5776 5775 5774 5773 5772 5770 5769 5768 5766 5765 5763 5762 5760 5758 5757 5755 5753 5751 5749 5748 5746 5745
5772 5773 5773 5774 5775 5775 5776 5776 5776 5776 5776 5775 5775 5775 5774 5774 5774 5773 5772 5772 5771 5770 5768 5767 5766 5765 5764 5763 5761 5760 5759 5757 5755 5754 5752 5750 5749 5747 5745 5743 5741 5739 5737
5765 5766 5767 5768 5769 5769 5769 5770 5770 5770 5770 5770 5769 5769 5768 5768 5767 5767 5766 5765 5764 5763 5762 5761 5760 5758 5757 5756 5755 5754 5752 5750 5749 5747 5746 5744 5743 5740 5738 5736 5734 5732 5730
5759 5759 5760 5761 5762 5762 5763 5763 5763 5764 5763 5763 5763 5762 5762 5762 5761 5760 5759 5758 5758 5757 5756 5754 5753 5752 5750 5749 5748 5746 5745 5744 5742 5741 5739 5738 5736 5734 5732 5730 5728 5726 5724
5751 5752 5753 5754 5754 5755 5756 5756 5757 5757 5757 5757 5756 5755 5755 5755 5754 5753 5752 5752 5751 5750 5748 5747 5746 5745 5743 5742 5740 5739 5738 5737 5735 5734 5733 5731 5729 5727 5725 5723 5721 5719 5717
5744 5744 5745 5746 5747 5748 5748 5749 5749 5749 5749 5749 5749 5748 5748 5748 5747 5746 5745 5744 5744 5743 5742 5741 5739 5738 5736 5735 5734 5732 5731 5730 5728 5727 5726 5724 5722 5720 5718 5716 5714 5712 5710
5737 5737 5738 5739 5740 5740 5741 5741 5742 5742 5742 5741 5741 5741 5741 5740 5739 5738 5738 5737 5736 5735 5734 5733 5732 5730 5729 5727 5726 5725 5724 5722 5721 5720 5718 5717 5715 5713 5711 5709 5706 5704 5702
5729 5730 5731 5732 5732 5733 5734 5734 5734 5734 5734 5734 5734 5733 5733 5732 5732 5731 5730 5729 5728 5727 5726 5725 5724 5722 5721 5720 5718 5717 5716 5715 5714 5712 5711 5709 5707 5705 5703 5701 5699 5697 5694
5722 5723 5724 5725 5726 5726 5727 5727 5727 5727 5726 5726 5726 5725 5725 5725 5724 5723 5722 5721 5721 5720 5718 5717 5716 5714 5713 5712 5711 5710 5709 5708 5707 5705 5704 5702 5700 5698 5695 5693 5691 5689 5686
5716 5716 5717 5718 5719 5719 5720 5720 5720 5720 5719 5719 5719 5718 5718 5717 5717 5716 5715 5714 5714 5713 5711 5710 5708 5707 5706 5705 5704 5703 5702 5701 5699 5698 5696 5694 5692 5690 5688 5685 5683 5681 5678
5709 5710 5710 5711 5712 5712 5713 5713 5713 5713 5713 5712 5712 5712 5711 5711 5710 5710 5709 5708 5707 5706 5705 5703 5702 5700 5699 5698 5697 5696 5694 5693 5692 5690 5688 5687 5684 5682 5680 5677 5675 5672 5669
5702 5703 5703 5704 5705 5705 5705 5706 5706 5706 5706 5705 5705 5705 5705 5704 5704 5703 5702 5701 5700 5699 5698 5696 5695 5693 5692 5690 5689 5688 5687 5685 5683 5682 5680 5678 5676 5674 5671 5668 5666 5663 5660
5695 5696 5697 5697 5698 5698 5698 5698 5698 5698 5698 5698 5698 5698 5697 5697 5697 5696 5696 5695 5694 5692 5691 5690 5688 5687 5685 5683 5681 5680 5679 5678 5676 5674 5672 5670 5668 5666 5663 5660 5657 5653 5651
5688 5689 5690 5690 5691 5691 5691 5692 5692 5691 5691 5691 5691 5690 5690 5690 5690 5689 5689 5688 5687 5686 5684 5683 5681 5680 5678 5676 5674 5673 5671 5670 5668 5666 5664 5662 5660 5657 5654 5651 5649 5645 5643
5682 5682 5683 5684 5684 5684 5684 5685 5685 5684 5684 5684 5684 5683 5683 5683 5682 5682 5681 5680 5680 5679 5677 5676 5674 5672 5671 5669 5667 5665 5663 5662 5660 5658 5656 5654 5652 5649 5646 5644 5641 5638 5635
5675 5676 5676 5677 5677 5677 5678 5678 5678 5678 5677 5677 5676 5676 5676 5676 5675 5674 5674 5673 5672 5671 5670 5668 5667 5665 5663 5661 5659 5657 5656 5654 5652 5650 5648 5646 5644 5641 5639 5636 5633 5631 5628